Regional Weather Roundup
Issued by NWS

Home | Current Version | Previous Version | Graphics & Text | Print | Product List | Glossary On
Versions: 1 2 3 4 5 6 7 8 9 10 11 12 13 14 15 16 17 18 19 20 21 22 23 24 25 26 27 28 29 30 31 32 33 34 35 36 37 38 39 40 41 42 43 44 45 46 47 48 49 50
000
ASUS43 KLSX 221059
RWRMO

WEATHER SUMMARY FOR MISSOURI
NATIONAL WEATHER SERVICE SPRINGFIELD MO
500 AM CST MON DEC 22 2014

NOTE: "FAIR" INDICATES FEW OR NO CLOUDS BELOW 12,000 FEET WITH NO
       SIGNIFICANT WEATHER AND/OR OBSTRUCTIONS TO VISIBILITY.
       CURRENT SKY AND/OR WEATHER CONDITIONS ARE NOT AVAILABLE FOR
       CHILLICOTHE AND FARMINGTON.

MOZ001>031-035>038-043-044-053-054-221200-
...NORTHERN AND WESTERN MISSOURI...

CITY           SKY/WX    TMP DP  RH WIND       PRES   REMARKS
KANSAS CTY INT DRIZZLE   41  40  96 SE13      29.62F FOG
KANSAS C DTWN  CLOUDY    43  40  89 SE8       29.63F
LEE`S SUMMIT   CLOUDY    41  39  93 SE7       29.64F
ST JOSEPH      CLOUDY    42  39  89 SE9       29.63F
CHILLICOTHE      N/A     42  36  79 SE9       29.69F
KIRKSVILLE     CLOUDY    39  36  89 SE13      29.72F

$$
MOZ066>068-077>081-088>096-101>105-221200-
...SOUTHWEST MISSOURI...

CITY           SKY/WX    TMP DP  RH WIND       PRES   REMARKS
SPRINGFIELD    CLOUDY    43  38  82 SE15      29.66F
JOPLIN         CLOUDY    45  42  89 SE7       29.63F

$$
MOZ032>034-039>042-045>050-055>058-069>072-221200-
...CENTRAL MISSOURI...

CITY           SKY/WX    TMP DP  RH WIND       PRES   REMARKS
COLUMBIA       LGT RAIN  40  36  86 E12       29.72F
JEFFERSON CITY CLOUDY    42  35  76 E8        29.73F
ROLLA          LGT RAIN  40  37  89 SE8       29.70F
SEDALIA        CLOUDY    41  37  86 SE10      29.69F
WARRENSBURG    DRIZZLE   41  37  87 SE9       29.66F
OSAGE BEACH    CLOUDY    45  34  65 SE8       29.70F

$$
MOZ051-052-059>065-221200-
...EAST CENTRAL MISSOURI...

CITY           SKY/WX    TMP DP  RH WIND       PRES   REMARKS
ST LOUIS INTL  LGT RAIN  42  32  67 SE10      29.81F
SPIRIT OF STL  CLOUDY    42  32  67 SE7       29.79F
ST CHARLES     CLOUDY    39  34  82 E12       29.81F

$$
MOZ072>076-082>087-097>100-106>115-221200-
...SOUTH CENTRAL AND SOUTHEAST MISSOURI...

CITY           SKY/WX    TMP DP  RH WIND       PRES   REMARKS
CAPE GIRARDEAU CLOUDY    44  40  85 SE9       29.84F
FARMINGTON     CLOUDY    41  36  81 E8        29.81S
POPLAR BLUFF   CLOUDY    43  38  82 SE3       29.83S
WEST PLAINS    CLOUDY    43  38  82 SE8       29.73F

$$



USA.gov is the U.S. government's official web portal to all federal, state and local government web resources and services.